Weather History for Columbus AFB, MS

Change the Weather History Date:

Wednesday, January 23, 2013

  Actual Average Record
Temperature  
Mean Temperature 46 °F -  
Max Temperature 53 °F 53 °F 77 °F (2002)
Min Temperature 38 °F 33 °F 17 °F (2003)
Degree Days  
Heating Degree Days 20    
Moisture  
Dew Point 32 °F    
Average Humidity 63    
Maximum Humidity 92    
Minimum Humidity 45    
Precipitation  
Precipitation 0.00 in - - ()
Sea Level Pressure  
Sea Level Pressure 30.31 in    
Wind  
Wind Speed 2 mph (South)    
Max Wind Speed 9 mph    
Max Gust Speed -    
Visibility 10 miles    
Events      
Averages and records for this station are not official NWS values.
T = Trace of Precipitation, MM = Missing Value Source: NWS Daily Summary

Daily Weather History Graph

Daily Weather History Graph

Search for Another Location

Airport:

Trip Planner

Search our weather history database for the weather conditions in past years. The results will help you decide how hot, cold, wet, or windy it might be!

Date:

Astronomy

Jan. 23, 2013 Rise Set
Actual Time 6:55 AM CST 5:16 PM CST
Civil Twilight 6:28 AM CST 5:43 PM CST
Nautical Twilight 5:58 AM CST 6:13 PM CST
Astronomical Twilight 5:28 AM CST 6:42 PM CST
Moon 2:28 PM CST (1/23) 4:04 AM CST (1/23)
Length of Visible Light 11h 14m
Length of Day
10h 21m
Waxing Gibbous, 89% of the Moon is Illuminated
Jan 23
Waxing Gibbous
Jan 26
Full
Feb 3
Last Quarter
Feb 10
New
Feb 17
First Quarter

Hourly Weather History & Observations

Time (CST) Temp. Windchill Dew Point Humidity Pressure Visibility Wind Dir Wind Speed Gust Speed Precip Events Conditions
12:55 AM 38.1 °F - 25.5 °F 61% 30.37 in 10.0 mi Calm Calm - N/A   Overcast
1:55 AM 38.3 °F 34.8 °F 25.2 °F 59% 30.36 in 10.0 mi ESE 4.6 mph - N/A   Overcast
2:55 AM 38.7 °F - 25.0 °F 58% 30.36 in 10.0 mi Calm Calm - N/A   Overcast
3:55 AM 38.8 °F - 25.7 °F 59% 30.36 in 10.0 mi Calm Calm - N/A   Overcast
4:55 AM 39.0 °F - 24.8 °F 57% 30.37 in 10.0 mi Calm Calm - N/A   Overcast
5:55 AM 39.0 °F - 25.9 °F 59% 30.38 in 10.0 mi Calm Calm - N/A   Overcast
6:55 AM 39.2 °F - 26.2 °F 60% 30.39 in 10.0 mi Calm Calm - N/A   Overcast
7:16 AM 39.2 °F - 26.6 °F 61% 30.39 in 10.0 mi Calm Calm - N/A   Overcast
7:51 AM 39.2 °F - 26.6 °F 61% 30.38 in 10.0 mi Calm Calm - N/A   Overcast
7:55 AM 39.6 °F - 27.1 °F 61% 30.38 in 10.0 mi Calm Calm - N/A   Overcast
8:55 AM 41.7 °F 39.8 °F 26.8 °F 55% 30.39 in 10.0 mi SSE 3.5 mph - N/A   Overcast
9:55 AM 44.4 °F 40.5 °F 27.3 °F 51% 30.40 in 10.0 mi South 6.9 mph - N/A   Overcast
10:55 AM 47.5 °F - 27.0 °F 45% 30.38 in 10.0 mi South 9.2 mph - N/A   Mostly Cloudy
11:55 AM 48.6 °F - 28.9 °F 47% 30.35 in 10.0 mi South 5.8 mph - N/A   Overcast
12:55 PM 49.6 °F - 30.9 °F 49% 30.30 in 10.0 mi SSW 5.8 mph - N/A   Overcast
1:55 PM 49.8 °F - 32.9 °F 52% 30.28 in 10.0 mi South 4.6 mph - N/A   Overcast
2:55 PM 51.4 °F - 35.4 °F 54% 30.27 in 10.0 mi SSW 4.6 mph - N/A   Mostly Cloudy
3:34 PM 51.8 °F - 35.6 °F 54% 30.26 in 10.0 mi South 4.6 mph - N/A   Mostly Cloudy
3:37 PM 51.8 °F - 35.6 °F 54% 30.26 in 10.0 mi South 4.6 mph - N/A   Mostly Cloudy
3:40 PM 51.8 °F - 37.4 °F 58% 30.26 in 10.0 mi Calm Calm - N/A   Scattered Clouds
3:44 PM 51.8 °F - 37.4 °F 58% 30.26 in 10.0 mi SSW 3.5 mph - N/A   Mostly Cloudy
3:48 PM 51.8 °F - 37.4 °F 58% 30.26 in 10.0 mi South 4.6 mph - N/A   Mostly Cloudy
3:55 PM 53.1 °F - 37.0 °F 55% 30.26 in 10.0 mi South 4.6 mph - N/A   Mostly Cloudy
4:55 PM 51.8 °F - 37.9 °F 59% 30.24 in 10.0 mi South 3.5 mph - N/A   Partly Cloudy
5:31 PM 50.0 °F - 39.2 °F 66% 30.24 in 10.0 mi Calm Calm - N/A   Overcast
6:31 PM 46.4 °F - 39.2 °F 76% 30.25 in 10.0 mi Calm Calm - N/A   Mostly Cloudy
6:55 PM 45.5 °F - 39.4 °F 79% 30.25 in 10.0 mi Calm Calm - N/A   Mostly Cloudy
7:55 PM 42.6 °F - 38.7 °F 86% 30.24 in 10.0 mi Calm Calm - N/A   Partly Cloudy
8:55 PM 40.8 °F - 38.1 °F 90% 30.23 in 10.0 mi Calm Calm - N/A   Clear
9:55 PM 39.6 °F - 37.4 °F 92% 30.24 in 10.0 mi Calm Calm - N/A   Scattered Clouds
10:55 PM 40.6 °F - 37.8 °F 89% 30.24 in 10.0 mi Calm Calm - N/A   Mostly Cloudy
11:55 PM 43.3 °F - 39.7 °F 87% 30.23 in 10.0 mi Calm Calm - N/A   Mostly Cloudy